sat.trackr.live / text

‹ back to catalog

JILIN-1 GAOFEN 2A

NORAD 44777 · 2019-075A

PAYLOAD ACTIVE UNKNOWN

§ Identity

Operator
Country
PRC
Launch date
2019-11-13
Launch site
JSC
Launch vehicle
Mass (kg)
RCS (m²)

External: N2YO · Heavens-Above · Gunter

§ Orbital elements

Epoch: 2026-09-20T04:00:55.516608Z

Period
93.41 min
Inclination
97.4914°
Eccentricity
0.0007162
Mean motion
15.41629936 rev/d
Perigee alt
436.4 km
Apogee alt
446.2 km
Semi-major
6,819.4 km
B*
2.4517e-4
RAAN
349.3116°
Arg perigee
100.8081°
Mean anomaly
259.3972°
Rev number
37,950

§ Raw data

JILIN-1 GAOFEN 2A1 44777U 19075A   26263.16730922  .00010244  00000+0  24517-3 0  99922 44777  97.4914 349.3116 0007162 100.8081 259.3972 15.41629936379503

JSON: /api/v1/satellites/44777 · /tle

For live sub-satellite position, see the globe view (requires WebGL).

§ Visibility from observer

Set your observer location to see the next 7 days of passes ≥ 10°. The values pass through the URL so the page stays shareable.

No JS? Fill the form by hand. The geolocation button needs JavaScript.

§ Radio — SatNOGS DB

ModeDescriptionDownlinkUplink
FM S-band telemetry 2.215 GHz

1 transmitter · refreshed weekly from db.satnogs.org